Location: Bannatyne
(13.0833°N, 59.5333°W)
Time: 21:25:26
(UTC+00:00)

deb Explorer IX - Pass Details

Date: 27 January 2020
Orbit: 549 x 1099 km, 38.8° (Epoch: 19 February)

Event Time Altitude Azimuth Distance (km) Brightness Sun altitude
Rises 05:31:01 0° 327° (NNW) 3,896 - -69.9°
Reaches altitude 10° 05:35:16 10° 349° (N) 2,907 - -69.0°
Maximum altitude 05:39:08 15° 22° (NNE) 2,493 - -68.1°
Drops below altitude 10° 05:42:51 10° 55° (NE) 2,776 - -67.2°
Sets 05:46:43 0° 78° (ENE) 3,621 - -66.3°
